This is the latest recevied weather packets stored in our database for station/object WX7FGZ-3. If no packets are shown the sender has not sent any weather packets the latest 10 day(s).
| Time | Temp. | Humidity | Pressure | Rain* | Wind** | Luminosity | Snow |
|---|---|---|---|---|---|---|---|
| 1777992939 | 8.33° C | 60% | 1005.4 hPa | 0 mm | - | - | - |
| 1777992639 | 7.78° C | 61% | 1005.4 hPa | 0 mm | - | - | - |
| 1777992039 | 7.78° C | 61% | 1005.4 hPa | 0 mm | - | - | - |
| 1777991784 | 7.78° C | 60% | 1005.6 hPa | 0 mm | - | - | - |
| 1777991738 | 7.78° C | 60% | 1005.6 hPa | 0 mm | - | - | - |
| 1777991438 | 7.78° C | 61% | 1005.7 hPa | 0 mm | - | - | - |
| 1777990838 | 7.22° C | 62% | 1005.8 hPa | 0 mm | - | - | - |
| 1777989937 | 7.22° C | 61% | 1006 hPa | 0 mm | - | - | - |
| 1777989637 | 7.22° C | 61% | 1006.2 hPa | 0 mm | - | - | - |
| 1777989336 | 6.67° C | 63% | 1006.2 hPa | 0 mm | - | - | - |
| 1777989036 | 6.67° C | 63% | 1006.1 hPa | 0 mm | - | - | - |
| 1777988736 | 6.11° C | 64% | 1006.1 hPa | 0 mm | - | - | - |
| 1777988136 | 5.56° C | 66% | 1006.1 hPa | 0 mm | - | - | - |
| 1777987835 | 5.56° C | 66% | 1005.9 hPa | 0 mm | - | - | - |
| 1777987534 | 5° C | 66% | 1005.8 hPa | 0 mm | - | - | - |
| 1777987234 | 5° C | 67% | 1005.8 hPa | 0 mm | - | - | - |
| 1777986634 | 4.44° C | 67% | 1005.8 hPa | 0 mm | - | - | - |
| 1777986333 | 4.44° C | 67% | 1005.9 hPa | 0 mm | - | - | - |
| 1777985432 | 4.44° C | 65% | 1005.8 hPa | 0 mm | - | - | - |
| 1777984832 | 4.44° C | 64% | 1005.8 hPa | 0 mm | - | - | - |
| 1777984532 | 5° C | 66% | 1005.6 hPa | 0 mm | - | - | - |
| 1777983693 | 5° C | 64% | 1005.9 hPa | 0 mm | - | - | - |
| 1777983631 | 5° C | 64% | 1005.9 hPa | 0 mm | - | - | - |
| 1777983330 | 5° C | 64% | 1005.9 hPa | 0 mm | - | - | - |
| 1777983030 | 5° C | 64% | 1005.8 hPa | 0 mm | - | - | - |
* Rain latest hour (hover to see other rain measurements)
** Current wind speed in m/s (hover to see current wind gust speed)